Location: Pordenone
(45.9640°N, 12.6580°E)
Time: 03:07:47
(UTC+02:00)

ISS - Pass Details

Date: 18 May 2021
Orbit: 417 x 422 km, 51.6° (Epoch: 14 June)

Event Time Altitude Azimuth Distance (km) Brightness Sun altitude
Rises 01:17:33 0° 295° (WNW) 2,371 0.3 -24.4°
Reaches altitude 10° 01:19:45 10° 304° (WNW) 1,506 -0.6 -24.4°
Enters shadow 01:22:51 37° 10° (N) 667 -2.3 -24.4°
